RH
68 68 68 68 68 67 67 66 65 63 62 61 60 59 59 58 58 58 57 57 56 56 56 55 55 55 55 55 55 55 54 54 53 53 52 51 51 50 50 49 49 49 49 49 49 49 49 49 49 48 48 47 47 48 49 50 52 53 53 53 53 53 52 53 54 54 54 53 52
71 71 70 70 69 68 67 66 65 64 63 62 62 61 59 58 57 57 55 54 53 52 51 50 50 50 50 49 50 50 50 50 50 50 50 50 50 50 50 49 49 49 49 49 48 48 48 48 47 47 47 47 47 48 48 49 49 50 51 51 51 51 52 53 53 53 53 53 52
70 70 70 70 70 70 69 69 68 67 66 65 64 62 61 60 58 57 55 54 53 51 50 49 48 47 47 46 46 46 46 46 47 47 48 48 48 48 48 48 48 48 48 48 48 48 47 47 47 47 47 47 47 47 47 47 47 48 49 50 51 52 53 54 54 53 53 52 50
66 66 67 67 67 67 67 67 66 65 64 63 62 61 60 59 58 56 55 55 54 53 52 51 50 49 48 47 46 45 45 45 45 45 45 45 46 46 46 46 46 45 46 46 46 47 47 47 47 47 47 47 46 46 46 46 47 48 49 50 51 53 54 54 53 52 51 49 48
58 58 59 59 60 60 61 61 61 60 60 59 59 58 58 57 56 56 55 55 55 54 54 53 52 51 50 49 48 47 46 45 44 44 43 43 43 43 43 43 43 43 43 43 44 45 46 47 46 46 46 46 46 45 45 46 47 48 49 49 50 50 51 52 50 49 48 47 46
50 50 50 51 52 53 53 54 55 55 55 56 56 56 56 56 55 55 55 54 54 53 53 53 53 53 52 52 51 50 48 46 45 44 43 42 41 41 41 41 41 41 41 41 42 43 44 45 45 46 45 45 45 46 46 47 48 49 49 49 49 49 49 49 48 48 47 47 47
43 43 44 45 46 47 48 49 50 51 51 52 52 53 53 53 53 53 53 53 53 53 53 53 53 53 53 53 53 52 51 49 48 46 44 42 41 41 40 40 40 40 41 41 41 42 43 44 44 44 44 45 45 46 47 49 49 50 49 49 49 48 48 48 48 48 48 49 50
38 39 40 41 42 43 44 44 45 46 47 47 48 48 49 49 49 50 51 51 52 52 53 53 54 54 54 55 55 55 54 53 51 49 47 44 43 42 41 41 41 41 42 42 42 42 42 43 43 43 44 44 45 47 48 50 50 50 49 49 48 48 48 48 48 49 50 52 54
34 34 35 37 38 38 39 40 40 41 42 42 43 43 44 45 46 47 48 50 51 52 53 54 55 55 56 56 56 56 56 55 54 52 49 47 45 44 43 43 43 43 43 43 43 43 43 43 43 43 44 45 46 47 49 50 50 49 49 48 48 47 47 48 49 50 52 55 56
31 32 32 33 34 34 35 35 36 36 36 37 37 38 39 40 41 43 45 47 49 51 52 53 54 55 56 56 57 57 57 57 55 54 51 49 47 46 46 46 46 46 46 45 45 45 45 44 44 44 45 45 46 47 48 49 49 49 48 47 47 47 47 48 49 51 53 54 52
30 30 31 31 31 31 32 32 32 32 32 32 33 33 34 35 36 38 40 42 45 47 48 48 49 51 52 53 53 54 54 54 54 53 51 50 49 48 48 48 48 49 48 48 47 47 46 46 46 45 45 46 46 47 48 48 48 48 47 47 47 47 48 49 50 51 51 50 47
31 31 31 31 31 31 31 31 31 31 30 30 30 31 31 31 32 34 36 38 40 41 41 42 43 45 46 47 48 48 49 49 49 49 48 47 48 49 50 51 51 51 51 51 50 49 48 48 47 47 46 46 46 47 47 47 47 47 47 47 48 48 49 50 49 49 48 47 47
33 33 33 32 32 32 32 32 32 31 31 31 31 31 31 30 31 31 33 34 34 35 35 36 37 39 40 41 41 42 43 44 45 45 44 44 45 47 48 51 52 53 53 53 52 51 51 50 49 48 48 47 47 47 46 47 47 47 47 48 49 50 50 50 48 48 48 49 50
35 35 34 34 34 34 34 34 33 33 33 32 32 32 31 31 30 30 31 31 31 30 31 31 32 33 34 35 36 37 38 39 40 41 41 41 42 44 46 48 50 52 54 54 54 54 53 52 52 51 50 49 49 49 48 49 49 49 50 50 50 51 50 49 50 50 52 53 55
36 36 36 36 36 36 35 35 35 34 34 34 33 32 32 31 30 30 29 29 28 28 28 29 29 30 31 32 33 34 35 36 37 38 39 39 40 41 43 45 47 49 51 53 54 55 55 55 54 54 53 52 52 52 52 52 52 52 52 52 52 51 51 52 53 55 56 58 60
37 37 37 37 37 37 37 36 36 35 34 34 33 32 32 31 30 29 28 28 27 27 27 27 28 29 30 31 32 32 33 34 35 36 37 38 39 40 41 42 44 46 48 50 51 53 54 55 55 55 54 54 54 54 54 54 53 53 53 53 53 53 54 56 58 59 60 62 64
38 38 38 38 38 37 37 36 35 35 34 33 33 32 31 30 29 28 28 27 27 27 27 28 29 30 31 32 32 33 34 35 35 36 37 38 38 39 40 41 42 44 45 47 49 51 53 55 55 55 54 54 54 54 54 54 54 54 55 55 56 57 58 59 60 62 64 66 67
39 38 38 38 37 37 36 35 35 34 33 32 31 31 30 29 29 28 28 28 28 29 29 30 31 32 33 34 34 35 36 37 38 38 38 39 39 39 40 40 41 42 44 46 48 50 52 54 55 55 55 55 55 55 55 56 57 58 58 59 59 60 60 61 63 64 66 67 66
39 38 37 36 36 35 34 34 33 32 31 31 30 30 30 30 30 30 30 30 31 31 32 32 33 35 36 37 38 39 39 40 40 41 41 40 40 40 41 41 42 43 45 47 49 51 53 54 56 57 57 58 58 58 58 59 60 61 62 62 62 63 63 64 65 66 66 65 63
38 37 36 35 34 34 33 32 32 32 31 31 31 31 32 32 32 32 33 33 33 34 35 36 38 39 40 41 42 42 42 43 43 43 43 43 43 43 43 44 45 46 48 50 52 53 55 57 58 60 61 61 61 61 62 62 63 64 65 66 66 66 66 67 66 65 64 62 60
36 36 35 34 34 33 33 33 33 33 33 33 33 34 34 35 35 35 36 36 37 38 39 41 42 43 44 44 45 45 46 46 47 47 47 47 47 47 47 48 49 51 53 54 56 57 59 60 62 62 63 63 64 65 66 67 67 68 69 69 69 69 68 67 65 64 62 60 58
36 35 35 34 33 33 33 34 34 34 34 35 36 36 37 37 38 38 39 39 40 42 43 45 46 47 47 48 48 49 49 49 50 51 51 51 52 52 53 54 55 56 57 59 60 62 63 64 64 65 66 67 68 69 70 70 71 70 70 70 69 68 67 65 63 61 59 57 56
35 34 34 33 33 33 34 34 34 35 36 36 38 39 39 40 41 42 43 44 45 47 48 49 50 51 52 53 53 53 54 54 55 56 57 57 57 58 59 60 60 61 62 63 64 64 65 66 67 68 69 70 71 71 71 71 71 70 69 68 66 65 64 62 60 59 56 55 55
34 33 33 33 33 34 35 36 36 38 39 40 42 43 44 45 46 48 49 50 51 53 54 56 57 58 59 59 59 59 60 60 61 62 63 63 63 63 63 64 64 64 64 64 64 65 66 67 69 70 71 71 71 71 70 69 68 66 65 63 62 61 60 58 57 55 54 53 54
34 34 34 35 36 38 39 41 42 44 46 47 48 50 51 52 53 54 55 57 59 60 61 63 64 64 65 65 65 66 66 67 67 68 68 68 68 68 68 68 67 66 65 64 65 65 67 69 70 71 72 72 71 69 67 65 63 62 60 59 58 57 56 55 54 53 52 52 53
36 37 39 41 43 45 46 48 50 51 53 53 54 55 56 57 58 59 60 61 63 64 66 66 67 67 68 68 69 70 71 71 72 72 72 71 71 71 70 69 68 67 66 66 67 68 69 71 72 73 72 71 69 67 64 62 61 59 58 57 56 55 54 53 53 53 53 53 53
42 44 46 48 50 51 53 54 55 56 57 57 57 57 58 59 60 60 61 63 64 65 66 67 67 68 69 70 70 71 72 73 73 74 74 74 73 73 72 70 69 68 68 69 70 71 72 73 73 73 72 70 67 65 63 61 60 59 57 56 55 54 53 54 55 55 54 53 54
49 51 53 54 55 56 56 57 58 59 59 58 58 58 58 59 60 60 61 62 63 64 65 65 66 67 68 69 70 71 72 72 73 74 74 74 74 74 73 71 71 70 71 71 72 73 74 74 73 71 70 68 67 65 63 62 60 58 57 55 54 53 53 53 53 54 54 54 53
55 56 57 58 58 58 58 59 60 60 60 59 58 58 58 59 59 59 60 61 61 62 63 64 65 66 67 69 69 70 71 71 72 73 73 74 74 73 72 72 72 72 72 73 74 74 73 73 72 71 69 68 67 65 63 61 58 56 55 53 52 51 51 51 51 52 53 54 54
59 59 60 59 59 60 60 61 61 61 60 59 58 58 58 58 58 59 59 59 59 60 61 62 64 65 67 68 69 69 70 70 71 71 71 70 70 70 70 70 71 72 73 73 73 73 72 72 70 69 67 65 63 61 59 57 55 53 52 51 50 50 50 51 52 53 54 55 55
61 61 61 61 61 61 61 61 61 60 60 59 58 58 58 58 58 58 58 58 58 58 59 61 62 64 66 67 68 69 69 69 68 67 66 66 65 65 66 67 68 69 69 69 69 69 68 66 65 63 61 59 58 56 55 54 53 52 52 51 51 52 53 53 54 55 55 55 54
62 63 63 63 63 63 62 61 61 60 59 59 59 59 59 59 59 58 58 58 59 59 60 61 62 63 64 66 67 67 67 67 65 64 62 61 61 61 62 62 63 63 63 62 62 61 60 59 58 58 57 56 56 55 55 54 54 53 53 53 53 53 54 54 54 54 53 51 49
64 64 64 64 64 63 62 61 61 60 60 59 59 59 59 59 59 60 60 60 60 61 61 61 62 63 64 65 66 66 66 65 64 62 60 58 58 58 58 59 59 58 58 58 57 57 56 57 57 57 57 57 57 57 57 56 55 54 53 53 52 52 52 51 51 50 48 47 45
66 66 65 64 63 63 62 62 62 62 61 61 60 59 59 59 60 61 62 62 63 63 63 63 64 65 65 65 66 66 66 65 63 62 60 58 57 57 57 58 58 57 57 57 57 57 57 57 58 59 59 59 59 59 59 57 55 54 53 51 51 50 50 49 48 47 45 43 42
67 67 66 65 64 64 64 65 64 64 63 62 60 60 59 59 60 62 63 64 64 65 65 66 66 67 67 67 67 67 66 66 65 63 61 59 58 58 58 58 59 59 58 58 58 58 59 60 61 61 62 62 61 60 58 56 54 53 51 51 50 49 48 48 46 45 43 42 41
68 68 67 67 66 67 67 67 66 65 64 63 62 61 60 60 61 62 63 64 66 67 68 68 69 69 69 69 68 68 68 67 66 65 63 62 61 61 60 61 60 60 60 60 60 61 62 63 64 64 64 63 62 59 57 55 53 52 52 51 50 49 47 46 44 43 43 42 41
69 68 68 68 69 69 68 68 67 67 66 65 63 63 62 61 62 62 63 65 67 68 69 70 70 70 70 70 70 70 70 69 68 67 66 65 65 64 63 63 63 62 62 62 63 64 65 65 66 66 65 63 60 58 56 54 54 53 52 51 49 47 45 44 43 43 42 42 42
69 69 69 69 70 69 69 69 68 68 67 66 66 65 64 64 64 64 65 66 68 69 70 70 71 71 71 71 71 71 71 71 70 69 69 68 68 67 66 66 66 65 65 66 67 67 68 68 68 66 65 62 60 58 56 55 54 53 51 48 46 45 44 43 43 43 42 42 42
70 69 68 68 69 69 68 68 68 68 67 67 67 67 66 66 66 66 67 67 68 69 70 70 71 71 72 72 73 72 72 72 71 71 70 70 70 70 70 69 69 69 70 70 70 70 70 69 68 66 64 62 59 57 56 54 52 50 48 46 45 44 43 43 43 43 42 42 42
70 69 68 68 68 68 68 67 67 67 67 67 67 67 67 67 68 68 68 68 69 69 70 71 71 72 72 73 73 73 73 73 73 73 73 73 73 73 73 73 73 73 73 74 73 73 72 70 68 66 63 61 57 55 52 51 49 47 45 44 44 43 43 42 42 42 42 42 42
72 71 70 69 69 69 68 68 67 67 67 67 67 68 68 68 68 68 69 69 70 70 71 71 72 73 73 74 74 74 74 74 74 75 75 76 76 76 77 77 76 76 76 76 75 74 73 71 67 64 61 57 54 51 49 47 46 45 44 44 43 43 42 42 42 42 41 41 39